Back to catalog

DELTA 1 DEB

AliveLEO
NORAD 10214·DEBRIS·🇺🇸 United States

Launched Jul 14, 1977 from Cape Canaveral Space Force Station

Loading…

Next Passes (next 24 hours)

TLE

FreshSource: Space-Track

Epoch: Sep 14, 2026, 13:54 UTC

1 10214U 77065AT  26257.57972817  .00001701  00000-0  56946-3 0  9993
2 10214  28.8760  90.2893 0487373  45.7117 318.2388 13.83513932365644

Track DELTA 1 DEB in real time with AllMySat

Download on the App Store